This demonstration page uses our WeatherBlox Daily Observations layout. Learn more.

Left ArrowRight Arrow

34.02893, -84.19858

Hourly Observations for August 27, 2015

Temp ( °F °C ) Dew Point ( °F °C ) Humidity (%) Winds ( mph kmh ) Pressure ( in mb ) Visibility ( mi km ) Precip ( " mm )
12:53 am 00:53 Clear 68 20 63 17.2 84 84 Calm 29.96 1015 10 16 0.00 0.00
1:53 am 01:53 Clear 68 20 62 16.7 81 81 N 3 6 29.95 1014 10 16 0.00 0.00
2:53 am 02:53 Partly Cloudy 66 18.9 62 16.7 87 87 NNE 5 7 29.95 1014 10 16 0.00 0.00
3:53 am 03:53 Mostly Clear 66 18.9 62 16.7 87 87 N 5 7 29.96 1015 10 16 0.00 0.00
4:53 am 04:53 Clear 66 18.9 62 16.7 87 87 Calm 29.95 1014 10 16 0.00 0.00
5:53 am 05:53 Clear 65 18.3 62 16.7 90 90 N 3 6 29.96 1015 10 16 0.00 0.00
6:53 am 06:53 Clear 69 20.6 63 17.2 81 81 E 5 7 29.97 1015 10 16 0.00 0.00
7:53 am 07:53 Mostly Sunny 70 21.1 63 17.2 79 79 VRB 5 7 30.00 1016 10 16 0.00 0.00
8:53 am 08:53 Sunny 72 22.2 63 17.2 73 73 VRB 6 9 30.01 1016 10 16 0.00 0.00
9:39 am 09:39 Mostly Cloudy 74 23.3 64 17.8 71 71 VRB 5 7 30.03 1017 10 16 0.00 0.00
9:53 am 09:53 Mostly Cloudy 73 22.8 65 18.3 76 76 VRB 7 11 30.02 1017 10 16 0.00 0.00
10:33 am 10:33 Partly Cloudy 77 25 66 18.9 69 69 VRB 7 11 30.00 1016 10 16 0.00 0.00
10:53 am 10:53 Sunny 77 25 66 18.9 69 69 E 10 17 30.02 1017 10 16 0.00 0.00
11:30 am 11:30 Mostly Cloudy 77 25 66 19 69 69 VRB 7 11 30.00 1016 10 16 0.00 0.00
11:53 am 11:53 Mostly Cloudy 77 25 67 19.4 71 71 E 8 13 30.03 1017 10 16 0.00 0.00
12:53 pm 12:53 Partly Cloudy 81 27.2 66 18.9 61 61 VRB 7 11 30.02 1017 10 16 0.00 0.00
1:53 pm 13:53 Mostly Sunny 82 27.8 66 18.9 58 58 ENE 10 17 30.01 1016 10 16 0.00 0.00
2:53 pm 14:53 Mostly Sunny 83 28.3 64 17.8 53 53 ENE 8 13 29.99 1016 10 16 0.00 0.00
3:53 pm 15:53 Mostly Sunny 84 28.9 65 18.3 53 53 E 8 13 29.98 1015 10 16 0.00 0.00
4:53 pm 16:53 Mostly Sunny 84 28.9 64 17.8 51 51 Calm 29.96 1015 10 16 0.00 0.00
5:53 pm 17:53 Sunny 83 28.3 64 17.8 53 53 VRB 6 9 29.97 1015 10 16 0.00 0.00
6:53 pm 18:53 Sunny 82 27.8 65 18.3 56 56 E 5 7 29.97 1015 10 16 0.00 0.00
7:53 pm 19:53 Sunny 79 26.1 65 18.3 62 62 E 7 11 29.98 1015 10 16 0.00 0.00
8:53 pm 20:53 Clear 77 25 65 18.3 66 66 Calm 30.01 1016 10 16 0.00 0.00
9:53 pm 21:53 Clear 74 23.3 66 18.9 76 76 VRB 3 6 30.04 1017 10 16 0.00 0.00
10:53 pm 22:53 Clear 73 22.8 67 19.4 81 81 E 3 6 30.04 1017 10 16 0.00 0.00
11:53 pm 23:53 Clear 71 21.7 67 19.4 87 87 Calm 30.03 1017 10 16 0.00 0.00

Powered by AerisWeather